Gainesville, FL

11:17 AM EST on January 16, 2017 (GMT -0500)
Gainesville Regional

Weather History for KGNV - March, 2013

Change the Weather History Date:

Saturday, March 16, 2013

  Actual Average Record
Temperature  
Mean Temperature 60 °F 62 °F  
Max Temperature 79 °F 75 °F 91 °F (1942)
Min Temperature 41 °F 50 °F 32 °F (1988)
Degree Days  
Heating Degree Days 5 4  
Month to date heating degree days 174 87  
Since 1 July heating degree days 906 1121  
Cooling Degree Days 0 2  
Month to date cooling degree days 0 26  
Year to date cooling degree days 100 58  
Growing Degree Days 10 (Base 50)    
Moisture  
Dew Point 42 °F    
Average Humidity 59    
Maximum Humidity 93    
Minimum Humidity 25    
Precipitation  
Precipitation 0.00 in 0.15 in 2.15 in (1900)
Month to date precipitation 0.32 2.37  
Year to date precipitation 2.29 8.88  
Snow  
Snow 0.00 in 0.00 in 0.00 in ()
Month to date snowfall 0.0 0.0  
Since 1 July snowfall 0.0 0.0  
Snow Depth 0.00 in    
Sea Level Pressure  
Sea Level Pressure 30.12 in    
Wind  
Wind Speed 7 mph (WSW)    
Max Wind Speed 18 mph    
Max Gust Speed 23 mph    
Visibility 10 miles    
Events      
T = Trace of Precipitation, MM = Missing Value Source: NWS Daily Summary

Daily Weather History Graph

Daily Weather History Graph

Search for Another Location

Airport or City:

Trip Planner

Search our weather history database for the weather conditions in past years. The results will help you decide how hot, cold, wet, or windy it might be!

Date:

Astronomy

Mar. 16, 2013 Rise Set
Actual Time 7:37 AM EDT 7:38 PM EDT
Civil Twilight 7:13 AM EDT 8:02 PM EDT
Nautical Twilight 6:45 AM EDT 8:29 PM EDT
Astronomical Twilight 6:18 AM EDT 8:57 PM EDT
Moon 10:28 AM EDT No Moon Set
Length of Visible Light 12h 48m
Length of Day
12h 00m
Waxing Crescent, 23% of the Moon is Illuminated
Mar 16
Waxing Crescent
Mar 19
First Quarter
Mar 27
Full
Apr 3
Last Quarter
Apr 10
New

Hourly Weather History & Observations

Time (EDT) Temp. Dew Point Humidity Pressure Visibility Wind Dir Wind Speed Gust Speed Precip Events Conditions
12:53 AM 51.1 °F 41.0 °F 68% 30.18 in 10.0 mi West 6.9 mph - N/A   Clear
1:53 AM 50.0 °F 42.1 °F 74% 30.17 in 10.0 mi West 5.8 mph - N/A   Clear
2:53 AM 48.0 °F 43.0 °F 83% 30.16 in 10.0 mi West 4.6 mph - N/A   Clear
3:53 AM 46.9 °F 42.1 °F 83% 30.15 in 10.0 mi Calm Calm - N/A   Clear
4:53 AM 46.9 °F 42.1 °F 83% 30.14 in 10.0 mi Calm Calm - N/A   Clear
5:53 AM 42.1 °F 39.9 °F 92% 30.14 in 10.0 mi Calm Calm - N/A   Clear
6:53 AM 42.1 °F 39.0 °F 89% 30.14 in 10.0 mi Calm Calm - N/A   Clear
7:53 AM 42.1 °F 39.0 °F 89% 30.15 in 10.0 mi Calm Calm - N/A   Clear
8:53 AM 48.0 °F 46.0 °F 93% 30.17 in 9.0 mi Calm Calm - N/A   Clear
9:53 AM 61.0 °F 50.0 °F 67% 30.17 in 10.0 mi WSW 4.6 mph - N/A   Clear
10:53 AM 68.0 °F 46.9 °F 47% 30.17 in 10.0 mi WSW 6.9 mph - N/A   Clear
11:53 AM 71.1 °F 42.1 °F 35% 30.16 in 10.0 mi West 11.5 mph - N/A   Clear
12:53 PM 75.0 °F 39.0 °F 27% 30.14 in 10.0 mi West 9.2 mph 17.3 mph N/A   Clear
1:53 PM 75.9 °F 39.9 °F 27% 30.11 in 10.0 mi West 9.2 mph - N/A   Clear
2:53 PM 78.1 °F 39.9 °F 25% 30.09 in 10.0 mi WSW 11.5 mph 19.6 mph N/A   Clear
3:53 PM 78.1 °F 39.0 °F 25% 30.06 in 10.0 mi SW 9.2 mph 21.9 mph N/A   Clear
4:53 PM 78.1 °F 42.1 °F 28% 30.05 in 10.0 mi West 13.8 mph - N/A   Clear
5:53 PM 75.9 °F 41.0 °F 29% 30.05 in 10.0 mi WSW 15.0 mph 19.6 mph N/A   Clear
6:53 PM 72.0 °F 39.9 °F 31% 30.06 in 10.0 mi West 11.5 mph - N/A   Clear
7:53 PM 66.9 °F 39.9 °F 37% 30.07 in 10.0 mi WSW 9.2 mph - N/A   Clear
8:53 PM 62.1 °F 39.0 °F 43% 30.09 in 10.0 mi WSW 5.8 mph - N/A   Clear
9:53 PM 60.1 °F 42.1 °F 51% 30.10 in 10.0 mi SW 5.8 mph - N/A   Clear
10:53 PM 55.0 °F 43.0 °F 64% 30.11 in 10.0 mi West 6.9 mph - N/A   Clear
11:53 PM 55.9 °F 39.9 °F 55% 30.12 in 10.0 mi WSW 9.2 mph - N/A   Clear